Tracking 18186 objects as of 29-March-2017
HD Live streaming from Space Station
objects crossing your sky now

H-1 R/B(1)

Track H-1 R/B(1) now!
10-day predictions


NORAD ID: 20230
Int'l Code: 1989-070B
Perigee: 191.3 km
Apogee: 5,283.4 km
Inclination: 28.2 °
Period: 144.2 minutes
Semi major axis: 9108 km
RCS: 2.9914 m2 (large)
Launch date: September 5, 1989
Source: Japan (JPN)
Launch site: TANEGASHIMA SPACE CENTER (TNSTA)

Note: This is a ROCKET BODY
Your satellite tracking list
Your tracking list is empty





NASA's NSSDC Master Catalog

Two Line Element Set (TLE):
1 20230U 89070B   17087.44465149 +.00329883 -77356-6 +14139-2 0  9999
2 20230 028.2025 193.9182 2795334 028.9273 344.0960 09.98720395502549
Source of the keplerian elements: AFSPC